SCP
0 0 0 0 0 0 0 0 0 0 0 0 0 0 0 0 0 0 0 0 0 0 0 0 0 0 0 0 0 0 0 0 0 0 0 0 0 0 0 0 0 0 0 0 0 0 0
0 0 0 0 0 0 0 0 0 0 0 0 0 0 0 0 0 0 0 0 0 0 0 0 0 0 0 0 0 0 0 0 0 0 0 -0 0 0 0 0 0 0 0 0 0 0 0
0 0 0 0 0 0 0 0 0 0 0 0 0 0 0 0 0 0 0 0 0 0 0 0 0 0 0 0 0 0 0 0 0 0 0 0 0 0 0 0 0 0 0 0 0 0 0
0 0 0 0 0 0 0 0 0 0 0 0 0 0 0 0 0 0 0 0 0 0 0 0 0 0 0 0 0 0 0 0 0 0 0 0 0 0 0 0 0 0 0 0 0 0 0
0 0 0 0 0 0 0 0 0 0 0 0 0 0 0 0 0 0 0 0 0 0 0 0 0 0 0 0 0 0 0 0 0 0 0 0 0 0 0 0 0 0 0 0 0 0 0
0 0 0 0 0 0 0 0 0 0 0 0 0 0 0 0 0 0 0 0 0 0 0 0 0 0 0 0 0 0 0 0 0 -0 0 0 -0 0 0 0 0 0 0 0 0 0 0
0 0 0 0 0 0 0 0 0 0 0 0 0 0 0 0 0 0 0 0 0 0 0 0 0 0 0 0 0 0 0 -0 0 0 0 -0 -0 0 0 0 0 0 0 0 0 0 0
0 0 0 0 0 0 0 0 0 0 0 0 0 0 0 0 0 0 0 0 0 0 0 0 0 0 0 0 0 0 -0 0 0 0 0 -0 0 0 0 0 0 0 0 0 0 0 0
0 0 0 0 0 0 0 0 0 0 0 0 0 0 0 0 0 0 0 0 0 0 0 0 0 0 0 0 0 0 0 0 0 0 0 -0 -0 0 0 0 0 0 0 0 0 0 0
0 0 0 0 0 0 0 0 0 0 0 0 0 0 0 0 0 0 0 0 0 0 0 0 0 0 0 0 0 0 0 0 0 0 -0 -0 -0 0 0 0 0 0 0 0 0 0 0
0 0 0 0 0 0 0 0 0 0 0 0 0 0 0 0 0 0 0 0 0 0 0 0 0 0 0 0 0 0 0 0 0 -0 -0 -0 -0 0 0 0 0 0 0 0 0 0 0
0 0 0 0 0 0 0 0 0 0 0 0 0 0 0 0 0 0 0 0 0 0 0 0 0 0 0 0 0 0 0 0 0 0 -0 0 -0 0 0 0 0 0 0 0 0 0 0
0 0 0 0 0 0 0 0 0 0 0 0 0 0 0 0 0 0 0 0 0 0 0 0 0 0 0 0 0 0 0 0 0 -0 -0 0 0 0 0 0 0 0 0 0 0 0 0
0 0 0 0 0 0 0 0 0 0 0 0 0 0 0 0 0 0 0 0 0 0 0 0 0 0 0 0 0 0 0 0 0 0 -0 -0 0 0 0 0 0 0 0 0 0 0 0
0 0 0 0 0 0 0 0 0 0 0 0 0 0 0 0 0 0 0 0 0 0 0 0 0 0 0 0 0 0 0 0 0 0 0 0 -0 0 0 0 0 0 0 0 0 0 0
0 0 0 0 0 0 0 0 0 0 0 0 0 0 0 0 0 0 0 0 0 0 0 0 0 0 0 0 0 0 0 0 0 0 0 0 -0 -0 0 0 0 0 0 0 0 0 0
0 0 0 0 0 0 0 0 0 0 0 0 0 0 0 0 0 0 0 0 0 0 0 0 0 0 0 0 0 0 0 0 0 0 0 0 0 0 -0 0 0 0 0 0 0 0 0
0 0 0 0 0 0 0 0 0 0 0 0 0 0 0 0 0 0 0 0 0 0 0 0 0 0 0 0 0 0 0 0 0 0 0 0 0 0 -0 0 -0 0 0 0 0 0 0
0 0 0 0 0 0 0 0 0 0 0 0 0 0 0 0 0 0 0 0 0 0 0 0 0 0 0 0 0 0 0 0 0 0 0 0 0 0 -0 -0 0 0 0 0 0 0 0
0 0 0 0 0 0 0 0 0 0 0 0 0 0 0 0 0 0 0 0 0 0 0 0 0 0 0 0 0 0 0 0 0 0 0 0 0 0 0 0 0 0 0 0 0 0 0
0 0 0 0 0 0 0 0 0 0 0 0 0 0 0 0 0 0 0 0 0 0 0 0 0 0 0 0 0 0 0 0 0 0 0 0 0 0 0 0 0 0 0 0 0 0 0
0 0 0 0 0 0 0 0 0 0 0 0 0 0 0 0 0 0 0 0 0 0 0 0 0 0 0 0 0 0 0 0 0 0 0 0 0 0 0 0 0 0 0 0 0 0 0
0 0 0 0 0 0 0 0 0 0 0 0 0 0 0 0 0 0 0 0 0 0 0 0 0 0 0 0 0 0 0 0 0 0 0 0 0 0 0 0 0 0 0 0 0 0 0
0 0 0 0 0 0 0 0 0 0 0 0 0 0 0 0 0 0 0 0 0 0 0 0 0 0 0 0 0 0 0 0 0 0 0 0 0 0 0 0 0 0 0 0 0 0 0
0 0 0 0 0 0 0 0 0 0 0 0 0 0 0 0 0 0 0 0 0 0 0 0 0 0 0 0 0 0 0 0 0 0 0 0 0 0 0 0 0 0 0 0 0 0 0
0 0 0 0 0 0 0 0 0 0 0 0 0 0 0 0 0 0 0 0 0 0 0 0 0 0 0 0 0 0 0 0 0 0 0 0 0 0 0 0 0 0 0 0 0 0 0
0 0 0 0 0 0 0 0 0 0 0 0 0 0 0 0 0 0 0 0 0 0 0 0 0 0 0 0 0 0 0 0 0 0 0 0 0 0 0 0 0 0 0 0 0 0 0
0 0 0 0 0 0 0 0 0 0 0 0 0 0 0 0 0 0 0 0 0 0 0 0 0 0 0 0 0 0 0 0 0 0 0 0 0 0 0 0 0 0 0 0 0 0 0
0 0 0 0 0 0 0 0 0 0 0 0 0 0 0 0 0 0 0 0 0 0 0 0 0 0 0 0 0 0 0 0 0 0 0 0 0 0 0 0 0 -0 0 0 0 0 0
Wind_Speed_500mb
45 41 37 43 40 35 33 29 27 23 21 19 17 14 11 9 9 8 9 12 12 12 11 8 5 3 4 8 9 8 13 17 20 21 14 21 25 13 9 10 20 14 6 6 3 4 4
40 40 41 42 45 40 33 31 30 27 24 20 18 16 14 10 9 7 7 9 11 10 9 8 4 5 5 3 5 4 9 16 23 27 19 17 21 23 23 12 12 10 11 4 6 5 3
44 47 45 44 45 42 36 32 33 30 27 23 19 17 15 11 9 6 6 7 8 6 5 9 9 8 6 6 4 2 2 12 21 27 22 20 16 7 12 8 10 10 3 2 4 4 3
52 50 48 47 45 43 38 38 36 32 29 25 22 19 16 12 9 5 5 7 5 4 1 5 3 3 6 7 5 3 3 8 16 19 24 24 24 28 12 14 5 1 7 6 5 14 9
57 54 49 50 47 45 41 40 40 35 31 28 24 21 19 14 9 6 3 3 2 2 2 6 4 3 4 3 4 8 7 7 10 17 16 16 18 14 8 6 8 13 2 6 4 9 10
64 64 59 58 52 50 45 41 38 36 34 30 27 24 20 15 11 7 3 3 4 5 7 8 8 2 4 3 7 7 11 10 9 8 9 10 11 9 10 9 4 4 6 8 6 10 10
62 62 65 62 62 56 48 43 36 37 36 32 29 26 22 17 13 8 7 10 6 1 3 3 5 6 6 8 10 9 9 9 10 7 5 10 15 7 7 8 9 12 7 4 9 10 9
72 63 67 72 68 63 50 46 40 37 38 34 32 29 24 18 15 12 13 7 4 5 5 6 7 5 8 9 4 9 6 6 4 4 4 13 7 8 9 10 9 6 4 7 10 13 4
80 75 65 73 73 64 57 49 44 41 41 37 34 33 25 20 17 14 14 10 5 9 4 2 6 4 6 6 4 5 5 4 6 8 6 11 7 9 2 3 3 6 2 3 6 11 5
81 81 69 73 73 74 65 59 49 45 44 40 37 36 28 22 13 16 12 14 11 11 8 2 4 2 6 10 5 6 6 4 4 8 10 10 6 3 4 3 3 4 3 5 9 8 2
89 80 78 69 62 68 73 65 53 48 45 43 41 39 31 28 14 21 12 18 19 7 5 3 5 7 8 5 8 4 7 6 5 5 8 4 9 4 2 4 2 4 2 4 3 4 5
96 93 91 84 67 63 70 74 63 54 49 46 46 41 35 33 20 17 22 25 17 12 11 6 7 7 7 4 3 6 6 6 7 6 11 6 2 4 0 5 4 3 4 4 4 4 6
89 90 83 89 76 65 62 77 68 56 53 48 48 40 39 36 27 26 32 27 9 8 9 8 8 9 5 7 5 4 6 4 7 10 3 3 2 3 4 5 5 1 4 5 9 9 6
84 86 85 85 92 79 69 70 74 61 56 52 49 45 42 38 29 35 40 9 7 7 11 7 7 9 9 9 2 4 9 2 4 5 7 10 7 2 6 4 5 5 3 8 9 1 8
88 92 95 91 87 93 79 72 85 68 61 58 54 46 41 39 35 47 29 4 15 15 13 19 7 10 2 3 7 6 13 11 9 8 10 9 5 1 3 1 5 5 4 5 10 6 6
89 92 94 97 92 94 77 87 91 78 71 67 67 49 42 43 43 48 7 12 8 9 10 7 10 8 12 9 8 9 12 5 9 1 3 9 9 2 2 2 4 6 1 6 6 5 2
91 92 94 99 91 94 81 92 96 90 81 71 66 27 37 47 51 27 8 14 8 14 7 12 11 8 8 13 11 11 15 2 8 7 4 8 6 7 3 6 4 3 1 4 4 4 4
94 92 91 97 103 99 87 98 103 99 89 78 54 7 52 61 15 7 7 11 10 9 7 5 5 8 12 11 9 7 13 6 4 12 10 4 8 6 4 3 1 2 2 6 7 5 4
96 95 91 94 96 107 100 101 114 110 104 93 49 15 53 67 12 5 2 3 8 10 10 12 8 6 5 12 9 8 7 4 8 2 10 5 3 5 12 7 5 6 8 7 8 5 8
102 96 95 97 94 96 107 121 123 120 113 93 34 9 13 25 9 16 13 10 8 11 9 10 9 10 8 6 8 9 7 2 7 3 10 7 3 8 11 8 7 8 9 7 11 6 5
110 106 97 93 97 99 113 131 118 126 123 95 45 14 25 16 22 13 16 18 14 12 9 16 4 9 14 9 5 5 5 5 7 6 3 9 5 3 7 6 3 7 8 17 15 10 12
103 103 100 95 97 97 126 141 129 126 130 85 43 18 21 20 51 20 23 18 26 12 18 12 9 18 13 13 15 20 17 9 11 8 6 2 4 5 8 8 4 9 14 16 12 8 19
81 104 99 98 98 103 138 132 135 129 144 61 60 47 47 35 23 27 17 19 25 28 14 12 24 14 13 6 24 40 22 28 22 14 8 7 11 6 9 8 7 14 16 23 10 9 13
81 93 97 97 96 102 119 156 156 145 143 108 85 69 22 11 26 37 31 23 27 29 22 13 42 14 27 67 67 57 62 50 45 29 10 10 9 6 6 9 4 10 7 14 15 12 27
67 90 96 98 93 90 132 151 168 154 134 128 92 86 32 8 29 30 24 18 39 22 9 13 17 17 81 26 9 11 9 11 12 11 13 10 7 5 7 6 12 8 8 14 13 10 16
68 86 90 94 94 91 113 166 151 141 126 145 87 104 69 16 29 36 41 49 15 10 7 8 23 85 31 8 8 11 10 11 6 11 13 5 8 7 7 6 12 8 7 10 10 8 1
76 79 85 93 95 94 94 155 136 142 126 152 96 108 85 26 30 59 39 47 33 17 10 16 27 20 9 5 6 7 8 5 12 21 11 4 5 10 7 4 17 13 17 17 11 11 14
80 79 86 92 97 97 97 122 142 145 145 157 108 110 93 45 41 59 58 61 40 40 14 35 16 6 5 5 8 9 7 13 7 7 17 15 15 8 7 6 18 28 16 16 9 14 15
94 89 93 93 99 101 99 103 154 159 149 156 75 125 90 64 24 58 59 69 81 86 63 69 13 30 32 9 5 8 5 3 12 8 6 8 15 13 18 15 7 66 6 23 23 18 14
Wind_Direction_500mb
251 262 263 252 264 280 271 251 245 237 241 247 253 254 257 268 288 310 328 336 344 348 349 6 43 92 63 48 79 43 26 29 30 45 95 102 67 73 91 90 61 81 129 114 287 336 95
252 255 262 265 263 273 269 261 245 241 238 239 246 254 258 263 273 300 324 337 343 344 349 8 68 93 115 95 68 43 36 35 38 45 67 95 87 98 81 62 66 120 141 140 2 41 175
253 255 260 261 262 262 264 266 247 241 240 237 233 241 248 252 267 295 322 336 339 343 8 61 102 80 73 107 46 70 49 49 51 50 74 89 96 128 101 86 103 122 82 262 354 21 314
238 252 255 257 259 256 258 265 251 237 237 237 233 236 239 240 249 271 310 323 336 350 39 160 107 33 75 89 58 43 69 59 62 69 72 82 99 80 71 112 97 107 80 51 321 17 332
241 240 253 255 256 255 255 262 248 234 229 230 230 231 233 235 236 247 291 316 7 62 96 157 145 118 71 94 37 42 61 75 81 80 68 73 73 70 68 70 28 14 69 17 353 59 16
245 250 248 254 254 250 250 257 252 232 227 224 224 224 225 225 224 230 217 174 139 114 124 132 139 167 121 7 35 53 71 71 84 73 58 47 57 67 25 54 185 251 28 343 305 330 17
239 241 251 253 250 244 243 249 254 239 227 220 217 218 220 214 214 211 169 142 140 77 191 132 144 132 147 120 66 57 90 82 73 42 79 36 67 92 125 87 112 110 112 305 258 299 3
242 237 257 248 248 242 236 241 244 240 229 216 215 215 208 210 213 201 184 182 187 149 97 96 119 134 136 120 101 54 108 61 5 106 75 27 104 142 118 139 121 103 83 293 290 262 140
241 238 237 249 246 243 238 233 237 237 227 216 211 217 204 203 207 204 198 210 214 179 84 157 170 148 142 142 103 53 115 109 64 55 48 123 180 145 222 192 56 182 251 324 262 309 280
245 237 233 240 246 244 239 230 229 230 227 217 211 212 201 194 194 201 200 209 184 161 72 222 210 122 141 146 55 73 105 95 56 127 117 103 178 226 248 70 58 144 36 2 318 24 308
237 231 236 236 241 245 237 230 223 226 228 219 211 206 198 186 186 178 174 167 163 128 13 115 153 142 139 111 138 51 92 77 88 105 92 198 165 233 314 136 90 209 320 272 265 322 8
232 238 241 232 228 232 239 233 218 216 223 216 208 200 191 188 187 168 156 152 149 50 256 148 140 152 122 154 111 112 80 80 103 83 43 108 92 58 50 310 216 344 319 264 342 55 33
239 241 228 222 222 229 238 236 216 209 217 210 203 193 195 190 181 167 157 148 51 139 1 259 176 157 176 153 135 175 130 59 139 84 351 350 178 159 119 53 356 19 40 5 6 13 212
238 223 228 234 231 231 234 237 216 204 210 205 194 194 193 188 175 169 158 65 122 228 202 236 147 119 161 161 120 143 115 8 240 142 114 148 327 231 346 103 180 287 184 157 169 292 280
237 235 235 236 232 233 231 232 215 198 202 198 190 191 195 184 174 172 158 111 208 200 164 149 66 99 253 212 144 151 174 186 189 181 157 135 355 345 34 59 121 341 21 326 100 24 57
238 235 235 233 231 227 223 231 209 194 198 196 183 185 190 178 172 174 106 237 213 193 133 144 144 152 166 208 134 152 181 208 179 150 125 185 96 354 261 279 227 144 210 18 1 83 308
234 233 234 227 226 218 222 226 206 191 196 190 183 163 179 169 168 171 176 224 210 201 172 155 167 132 172 165 162 175 196 5 159 166 298 172 106 275 11 223 184 80 31 112 138 114 152
234 231 232 237 224 224 222 222 202 192 191 182 169 141 163 164 152 186 184 190 158 174 174 138 118 125 154 163 145 172 170 100 179 148 149 302 126 127 224 279 30 180 188 130 118 289 297
231 230 227 224 225 224 224 218 204 192 191 175 163 110 166 173 168 225 3 342 199 146 196 161 171 152 153 150 117 149 143 68 83 77 140 209 325 58 348 349 21 248 203 160 122 92 215
230 229 226 222 224 226 220 211 204 193 189 177 152 129 159 206 206 153 149 204 189 210 193 169 142 119 109 107 25 148 127 99 100 61 96 85 103 185 183 175 136 176 181 182 133 129 210
227 226 224 225 221 220 215 206 211 198 191 177 176 192 176 176 218 190 166 156 142 168 226 179 351 192 156 117 76 132 115 122 78 160 56 103 175 19 295 279 218 212 183 180 202 199 171
223 223 221 220 222 222 216 210 207 202 191 180 170 153 160 182 191 174 185 209 167 177 151 225 202 174 174 158 183 185 141 189 173 181 158 94 160 76 297 322 351 269 229 220 213 236 274
232 219 219 218 219 213 210 209 207 205 191 189 191 182 165 163 166 182 197 182 192 137 218 206 165 131 145 177 110 115 109 128 133 136 146 129 125 90 274 344 3 314 223 185 201 204 168
226 220 218 217 219 219 217 207 208 205 203 195 193 172 160 174 172 193 176 176 172 185 147 177 167 121 139 120 103 88 83 74 67 44 77 136 102 105 219 358 347 246 123 176 191 228 216
228 221 215 217 219 222 216 208 202 207 206 196 191 187 179 136 183 179 176 156 135 107 87 129 165 165 147 136 80 66 1 26 355 22 2 355 121 90 128 194 287 303 212 164 172 274 208
226 219 216 217 215 212 208 202 203 207 207 199 197 191 193 143 209 180 179 171 151 125 50 95 128 151 160 102 94 145 174 173 249 355 355 354 50 109 86 152 222 230 182 170 124 312 156
226 219 217 216 216 213 210 203 217 215 212 201 195 191 194 198 199 173 175 179 157 134 110 135 148 171 157 110 116 156 198 181 165 161 174 83 13 157 133 235 286 233 171 155 91 226 176
224 223 218 217 215 213 211 216 212 214 213 203 201 195 195 196 180 188 178 172 158 155 144 153 111 216 85 145 140 180 148 208 103 180 166 160 150 190 98 92 275 167 123 176 191 156 172
221 224 220 216 215 213 211 208 204 207 210 207 197 192 193 192 187 189 191 195 191 180 161 168 158 155 169 114 182 114 129 115 154 207 144 210 183 183 183 203 284 183 183 180 165 156 185
Wind_Speed_850mb
45 41 37 43 40 35 33 29 27 23 21 19 17 14 11 9 9 8 9 12 12 12 11 8 5 3 4 8 9 8 13 17 20 21 14 21 25 13 9 10 20 14 6 6 3 4 4
40 40 41 42 45 40 33 31 30 27 24 20 18 16 14 10 9 7 7 9 11 10 9 8 4 5 5 3 5 4 9 16 23 27 19 17 21 23 23 12 12 10 11 4 6 5 3
44 47 45 44 45 42 36 32 33 30 27 23 19 17 15 11 9 6 6 7 8 6 5 9 9 8 6 6 4 2 2 12 21 27 22 20 16 7 12 8 10 10 3 2 4 4 3
52 50 48 47 45 43 38 38 36 32 29 25 22 19 16 12 9 5 5 7 5 4 1 5 3 3 6 7 5 3 3 8 16 19 24 24 24 28 12 14 5 1 7 6 5 14 9
57 54 49 50 47 45 41 40 40 35 31 28 24 21 19 14 9 6 3 3 2 2 2 6 4 3 4 3 4 8 7 7 10 17 16 16 18 14 8 6 8 13 2 6 4 9 10
64 64 59 58 52 50 45 41 38 36 34 30 27 24 20 15 11 7 3 3 4 5 7 8 8 2 4 3 7 7 11 10 9 8 9 10 11 9 10 9 4 4 6 8 6 10 10
62 62 65 62 62 56 48 43 36 37 36 32 29 26 22 17 13 8 7 10 6 1 3 3 5 6 6 8 10 9 9 9 10 7 5 10 15 7 7 8 9 12 7 4 9 10 9
72 63 67 72 68 63 50 46 40 37 38 34 32 29 24 18 15 12 13 7 4 5 5 6 7 5 8 9 4 9 6 6 4 4 4 13 7 8 9 10 9 6 4 7 10 13 4
80 75 65 73 73 64 57 49 44 41 41 37 34 33 25 20 17 14 14 10 5 9 4 2 6 4 6 6 4 5 5 4 6 8 6 11 7 9 2 3 3 6 2 3 6 11 5
81 81 69 73 73 74 65 59 49 45 44 40 37 36 28 22 13 16 12 14 11 11 8 2 4 2 6 10 5 6 6 4 4 8 10 10 6 3 4 3 3 4 3 5 9 8 2
89 80 78 69 62 68 73 65 53 48 45 43 41 39 31 28 14 21 12 18 19 7 5 3 5 7 8 5 8 4 7 6 5 5 8 4 9 4 2 4 2 4 2 4 3 4 5
96 93 91 84 67 63 70 74 63 54 49 46 46 41 35 33 20 17 22 25 17 12 11 6 7 7 7 4 3 6 6 6 7 6 11 6 2 4 0 5 4 3 4 4 4 4 6
89 90 83 89 76 65 62 77 68 56 53 48 48 40 39 36 27 26 32 27 9 8 9 8 8 9 5 7 5 4 6 4 7 10 3 3 2 3 4 5 5 1 4 5 9 9 6
84 86 85 85 92 79 69 70 74 61 56 52 49 45 42 38 29 35 40 9 7 7 11 7 7 9 9 9 2 4 9 2 4 5 7 10 7 2 6 4 5 5 3 8 9 1 8
88 92 95 91 87 93 79 72 85 68 61 58 54 46 41 39 35 47 29 4 15 15 13 19 7 10 2 3 7 6 13 11 9 8 10 9 5 1 3 1 5 5 4 5 10 6 6
89 92 94 97 92 94 77 87 91 78 71 67 67 49 42 43 43 48 7 12 8 9 10 7 10 8 12 9 8 9 12 5 9 1 3 9 9 2 2 2 4 6 1 6 6 5 2
91 92 94 99 91 94 81 92 96 90 81 71 66 27 37 47 51 27 8 14 8 14 7 12 11 8 8 13 11 11 15 2 8 7 4 8 6 7 3 6 4 3 1 4 4 4 4
94 92 91 97 103 99 87 98 103 99 89 78 54 7 52 61 15 7 7 11 10 9 7 5 5 8 12 11 9 7 13 6 4 12 10 4 8 6 4 3 1 2 2 6 7 5 4
96 95 91 94 96 107 100 101 114 110 104 93 49 15 53 67 12 5 2 3 8 10 10 12 8 6 5 12 9 8 7 4 8 2 10 5 3 5 12 7 5 6 8 7 8 5 8
102 96 95 97 94 96 107 121 123 120 113 93 34 9 13 25 9 16 13 10 8 11 9 10 9 10 8 6 8 9 7 2 7 3 10 7 3 8 11 8 7 8 9 7 11 6 5
110 106 97 93 97 99 113 131 118 126 123 95 45 14 25 16 22 13 16 18 14 12 9 16 4 9 14 9 5 5 5 5 7 6 3 9 5 3 7 6 3 7 8 17 15 10 12
103 103 100 95 97 97 126 141 129 126 130 85 43 18 21 20 51 20 23 18 26 12 18 12 9 18 13 13 15 20 17 9 11 8 6 2 4 5 8 8 4 9 14 16 12 8 19
81 104 99 98 98 103 138 132 135 129 144 61 60 47 47 35 23 27 17 19 25 28 14 12 24 14 13 6 24 40 22 28 22 14 8 7 11 6 9 8 7 14 16 23 10 9 13
81 93 97 97 96 102 119 156 156 145 143 108 85 69 22 11 26 37 31 23 27 29 22 13 42 14 27 67 67 57 62 50 45 29 10 10 9 6 6 9 4 10 7 14 15 12 27
67 90 96 98 93 90 132 151 168 154 134 128 92 86 32 8 29 30 24 18 39 22 9 13 17 17 81 26 9 11 9 11 12 11 13 10 7 5 7 6 12 8 8 14 13 10 16
68 86 90 94 94 91 113 166 151 141 126 145 87 104 69 16 29 36 41 49 15 10 7 8 23 85 31 8 8 11 10 11 6 11 13 5 8 7 7 6 12 8 7 10 10 8 1
76 79 85 93 95 94 94 155 136 142 126 152 96 108 85 26 30 59 39 47 33 17 10 16 27 20 9 5 6 7 8 5 12 21 11 4 5 10 7 4 17 13 17 17 11 11 14
80 79 86 92 97 97 97 122 142 145 145 157 108 110 93 45 41 59 58 61 40 40 14 35 16 6 5 5 8 9 7 13 7 7 17 15 15 8 7 6 18 28 16 16 9 14 15
94 89 93 93 99 101 99 103 154 159 149 156 75 125 90 64 24 58 59 69 81 86 63 69 13 30 32 9 5 8 5 3 12 8 6 8 15 13 18 15 7 66 6 23 23 18 14
Wind_Direction_850mb
251 262 263 252 264 280 271 251 245 237 241 247 253 254 257 268 288 310 328 336 344 348 349 6 43 92 63 48 79 43 26 29 30 45 95 102 67 73 91 90 61 81 129 114 287 336 95
252 255 262 265 263 273 269 261 245 241 238 239 246 254 258 263 273 300 324 337 343 344 349 8 68 93 115 95 68 43 36 35 38 45 67 95 87 98 81 62 66 120 141 140 2 41 175
253 255 260 261 262 262 264 266 247 241 240 237 233 241 248 252 267 295 322 336 339 343 8 61 102 80 73 107 46 70 49 49 51 50 74 89 96 128 101 86 103 122 82 262 354 21 314
238 252 255 257 259 256 258 265 251 237 237 237 233 236 239 240 249 271 310 323 336 350 39 160 107 33 75 89 58 43 69 59 62 69 72 82 99 80 71 112 97 107 80 51 321 17 332
241 240 253 255 256 255 255 262 248 234 229 230 230 231 233 235 236 247 291 316 7 62 96 157 145 118 71 94 37 42 61 75 81 80 68 73 73 70 68 70 28 14 69 17 353 59 16
245 250 248 254 254 250 250 257 252 232 227 224 224 224 225 225 224 230 217 174 139 114 124 132 139 167 121 7 35 53 71 71 84 73 58 47 57 67 25 54 185 251 28 343 305 330 17
239 241 251 253 250 244 243 249 254 239 227 220 217 218 220 214 214 211 169 142 140 77 191 132 144 132 147 120 66 57 90 82 73 42 79 36 67 92 125 87 112 110 112 305 258 299 3
242 237 257 248 248 242 236 241 244 240 229 216 215 215 208 210 213 201 184 182 187 149 97 96 119 134 136 120 101 54 108 61 5 106 75 27 104 142 118 139 121 103 83 293 290 262 140
241 238 237 249 246 243 238 233 237 237 227 216 211 217 204 203 207 204 198 210 214 179 84 157 170 148 142 142 103 53 115 109 64 55 48 123 180 145 222 192 56 182 251 324 262 309 280
245 237 233 240 246 244 239 230 229 230 227 217 211 212 201 194 194 201 200 209 184 161 72 222 210 122 141 146 55 73 105 95 56 127 117 103 178 226 248 70 58 144 36 2 318 24 308
237 231 236 236 241 245 237 230 223 226 228 219 211 206 198 186 186 178 174 167 163 128 13 115 153 142 139 111 138 51 92 77 88 105 92 198 165 233 314 136 90 209 320 272 265 322 8
232 238 241 232 228 232 239 233 218 216 223 216 208 200 191 188 187 168 156 152 149 50 256 148 140 152 122 154 111 112 80 80 103 83 43 108 92 58 50 310 216 344 319 264 342 55 33
239 241 228 222 222 229 238 236 216 209 217 210 203 193 195 190 181 167 157 148 51 139 1 259 176 157 176 153 135 175 130 59 139 84 351 350 178 159 119 53 356 19 40 5 6 13 212
238 223 228 234 231 231 234 237 216 204 210 205 194 194 193 188 175 169 158 65 122 228 202 236 147 119 161 161 120 143 115 8 240 142 114 148 327 231 346 103 180 287 184 157 169 292 280
237 235 235 236 232 233 231 232 215 198 202 198 190 191 195 184 174 172 158 111 208 200 164 149 66 99 253 212 144 151 174 186 189 181 157 135 355 345 34 59 121 341 21 326 100 24 57
238 235 235 233 231 227 223 231 209 194 198 196 183 185 190 178 172 174 106 237 213 193 133 144 144 152 166 208 134 152 181 208 179 150 125 185 96 354 261 279 227 144 210 18 1 83 308
234 233 234 227 226 218 222 226 206 191 196 190 183 163 179 169 168 171 176 224 210 201 172 155 167 132 172 165 162 175 196 5 159 166 298 172 106 275 11 223 184 80 31 112 138 114 152
234 231 232 237 224 224 222 222 202 192 191 182 169 141 163 164 152 186 184 190 158 174 174 138 118 125 154 163 145 172 170 100 179 148 149 302 126 127 224 279 30 180 188 130 118 289 297
231 230 227 224 225 224 224 218 204 192 191 175 163 110 166 173 168 225 3 342 199 146 196 161 171 152 153 150 117 149 143 68 83 77 140 209 325 58 348 349 21 248 203 160 122 92 215
230 229 226 222 224 226 220 211 204 193 189 177 152 129 159 206 206 153 149 204 189 210 193 169 142 119 109 107 25 148 127 99 100 61 96 85 103 185 183 175 136 176 181 182 133 129 210
227 226 224 225 221 220 215 206 211 198 191 177 176 192 176 176 218 190 166 156 142 168 226 179 351 192 156 117 76 132 115 122 78 160 56 103 175 19 295 279 218 212 183 180 202 199 171
223 223 221 220 222 222 216 210 207 202 191 180 170 153 160 182 191 174 185 209 167 177 151 225 202 174 174 158 183 185 141 189 173 181 158 94 160 76 297 322 351 269 229 220 213 236 274
232 219 219 218 219 213 210 209 207 205 191 189 191 182 165 163 166 182 197 182 192 137 218 206 165 131 145 177 110 115 109 128 133 136 146 129 125 90 274 344 3 314 223 185 201 204 168
226 220 218 217 219 219 217 207 208 205 203 195 193 172 160 174 172 193 176 176 172 185 147 177 167 121 139 120 103 88 83 74 67 44 77 136 102 105 219 358 347 246 123 176 191 228 216
228 221 215 217 219 222 216 208 202 207 206 196 191 187 179 136 183 179 176 156 135 107 87 129 165 165 147 136 80 66 1 26 355 22 2 355 121 90 128 194 287 303 212 164 172 274 208
226 219 216 217 215 212 208 202 203 207 207 199 197 191 193 143 209 180 179 171 151 125 50 95 128 151 160 102 94 145 174 173 249 355 355 354 50 109 86 152 222 230 182 170 124 312 156
226 219 217 216 216 213 210 203 217 215 212 201 195 191 194 198 199 173 175 179 157 134 110 135 148 171 157 110 116 156 198 181 165 161 174 83 13 157 133 235 286 233 171 155 91 226 176
224 223 218 217 215 213 211 216 212 214 213 203 201 195 195 196 180 188 178 172 158 155 144 153 111 216 85 145 140 180 148 208 103 180 166 160 150 190 98 92 275 167 123 176 191 156 172
221 224 220 216 215 213 211 208 204 207 210 207 197 192 193 192 187 189 191 195 191 180 161 168 158 155 169 114 182 114 129 115 154 207 144 210 183 183 183 203 284 183 183 180 165 156 185